User: anonymous   Login
Location: Livonia
(42.3680°N, 83.3530°W)
Time: 07:09:26
(UTC-04:00)
Language:

MOZ.5/SAFIR/RUBIN 5/SL-8 - Orbit

View from above orbital plane
View from above orbital plane
View from above satellite
View from above satellite

Ground track
Ground track

The orbit data is extracted from the following two-line orbital elements,

1 28898U 05043G   14305.14908655  .00000448  00000-0  10303-3 0  9679
2 28898 097.8351 127.1668 0019087 327.7376 147.8090 14.59602984479907
Epoch (UTC): 01 November 2014 03:34:41
Eccentricity: 0.0019087
inclination: 97.8351°
perigee height: 681 km
apogee height: 708 km
right ascension of ascending node: 127.1668°
argument of perigee: 327.7376°
revolutions per day: 14.59602984
mean anomaly at epoch: 147.8090°
orbit number at epoch: 47990

The dashed part of the orbit path shows where the satellite is in the earth's shadow,  

DLR